Weather History for KTQE - May, 2014

Change the Weather History Date:

Sunday, May 11, 2014

  Actual Average Record
Temperature  
Mean Temperature 64 °F -  
Max Temperature 73 °F 74 °F 93 °F (2000)
Min Temperature 54 °F 49 °F 33 °F (1981)
Degree Days  
Heating Degree Days 2    
Growing Degree Days 14 (Base 50)    
Moisture  
Dew Point 58 °F    
Average Humidity 79    
Maximum Humidity 94    
Minimum Humidity 53    
Precipitation  
Precipitation 0.53 in - - ()
Sea Level Pressure  
Sea Level Pressure 29.70 in    
Wind  
Wind Speed 12 mph (NNE)    
Max Wind Speed 22 mph    
Max Gust Speed 33 mph    
Visibility 8 miles    
Events Rain , Thunderstorm    
Averages and records for this station are not official NWS values.
T = Trace of Precipitation, MM = Missing Value Source: NWS Daily Summary

Daily Weather History Graph

Daily Weather History Graph

Search for Another Location

Airport or City:

Trip Planner

Search our weather history database for the weather conditions in past years. The results will help you decide how hot, cold, wet, or windy it might be!

Date:

Astronomy

May. 11, 2014 Rise Set
Actual Time 6:09 AM CDT 8:33 PM CDT
Civil Twilight 5:37 AM CDT 9:05 PM CDT
Nautical Twilight 4:58 AM CDT 9:44 PM CDT
Astronomical Twilight 4:15 AM CDT 10:27 PM CDT
Moon 5:28 PM CDT (5/11) 4:17 AM CDT (5/11)
Length of Visible Light 15h 27m
Length of Day
14h 24m
Waxing Gibbous, 89% of the Moon is Illuminated
May 11
Waxing Gibbous
May 14
Full
May 21
Last Quarter
May 28
New
Jun 5
First Quarter

Hourly Weather History & Observations

Time (CDT) Temp. Dew Point Humidity Pressure Visibility Wind Dir Wind Speed Gust Speed Precip Events Conditions
12:54 AM 57.0 °F 39.9 °F 53% 29.76 in 10.0 mi North 9.2 mph - N/A   Clear
1:54 AM 54.0 °F 41.0 °F 62% 29.74 in 10.0 mi NNE 5.8 mph - N/A   Clear
2:54 AM 55.0 °F 43.0 °F 64% 29.75 in 10.0 mi NNW 10.4 mph - N/A   Clear
3:54 AM 57.9 °F 46.9 °F 67% 29.73 in 10.0 mi North 13.8 mph - N/A   Mostly Cloudy
4:54 AM 55.9 °F 48.0 °F 75% 29.72 in 10.0 mi North 4.6 mph - N/A   Scattered Clouds
5:54 AM 57.0 °F 50.0 °F 77% 29.74 in 10.0 mi NNE 8.1 mph - 0.00 in Rain Light Rain
6:54 AM 55.9 °F 51.1 °F 84% 29.79 in 7.0 mi Calm Calm - 0.03 in Rain Light Rain
7:54 AM 55.0 °F 52.0 °F 89% 29.83 in 5.0 mi NE 4.6 mph - 0.22 in Rain Rain
8:22 AM 55.9 °F 53.1 °F 90% 29.82 in 8.0 mi North 12.7 mph - 0.08 in Rain , Thunderstorm Light Thunderstorms and Rain
8:43 AM 55.9 °F 52.0 °F 87% 29.88 in 8.0 mi WNW 16.1 mph - 0.10 in Rain , Thunderstorm Light Rain
8:52 AM 55.4 °F 53.6 °F 94% 29.89 in 5.0 mi WNW 19.6 mph - 0.14 in Rain Heavy Rain
8:54 AM 55.9 °F 53.1 °F 90% 29.86 in 4.0 mi WNW 19.6 mph - 0.15 in Rain Heavy Rain
9:50 AM 55.4 °F 53.6 °F 94% 29.76 in 7.0 mi NNE 21.9 mph 33.4 mph 0.13 in Rain Light Rain
9:54 AM 57.0 °F 54.0 °F 89% 29.75 in 10.0 mi NNE 19.6 mph 32.2 mph 0.13 in Rain Light Rain
10:54 AM 62.1 °F 55.9 °F 80% 29.75 in 10.0 mi ENE 16.1 mph - 0.00 in   Mostly Cloudy
11:54 AM 66.9 °F 57.0 °F 70% 29.74 in 10.0 mi ENE 13.8 mph 25.3 mph N/A   Clear
12:54 PM 71.1 °F 60.1 °F 68% 29.70 in 10.0 mi East 16.1 mph - N/A   Mostly Cloudy
1:40 PM 71.1 °F 60.1 °F 68% 29.71 in 10.0 mi ESE 17.3 mph - N/A   Overcast
1:54 PM 71.1 °F 61.0 °F 70% 29.68 in 10.0 mi ESE 19.6 mph - N/A   Overcast
2:03 PM 72.0 °F 61.0 °F 68% 29.70 in 10.0 mi ESE 16.1 mph 25.3 mph N/A   Overcast
2:31 PM 71.1 °F 61.0 °F 70% 29.71 in 10.0 mi SE 17.3 mph - N/A   Overcast
2:54 PM 71.1 °F 62.1 °F 73% 29.68 in 10.0 mi ESE 15.0 mph - N/A   Overcast
3:54 PM 73.0 °F 64.0 °F 73% 29.63 in 10.0 mi East 17.3 mph - N/A   Overcast
4:16 PM 73.9 °F 64.9 °F 73% 29.65 in 10.0 mi ESE 15.0 mph - N/A   Scattered Clouds
4:46 PM 73.0 °F 64.9 °F 76% 29.64 in 10.0 mi ESE 16.1 mph - N/A   Mostly Cloudy
4:54 PM 73.0 °F 64.9 °F 76% 29.60 in 10.0 mi ESE 13.8 mph - N/A   Mostly Cloudy
5:44 PM 71.1 °F 64.9 °F 81% 29.63 in 10.0 mi NE 8.1 mph - N/A   Mostly Cloudy
5:54 PM 70.0 °F 64.9 °F 84% 29.60 in 10.0 mi NE 9.2 mph - N/A   Mostly Cloudy
6:16 PM 70.0 °F 64.9 °F 84% 29.61 in 10.0 mi NNE 5.8 mph - N/A Thunderstorm Mostly Cloudy
6:52 PM 69.8 °F 64.4 °F 83% 29.58 in 10.0 mi North 12.7 mph - N/A   Mostly Cloudy
6:54 PM 70.0 °F 64.9 °F 84% 29.57 in 10.0 mi North 12.7 mph - N/A   Mostly Cloudy
7:08 PM 69.1 °F 64.0 °F 84% 29.58 in 10.0 mi North 15.0 mph - 0.00 in Rain , Thunderstorm Light Rain
7:29 PM 69.1 °F 64.9 °F 87% 29.59 in 6.0 mi North 10.4 mph 24.2 mph 0.03 in Rain , Thunderstorm Thunderstorms and Rain
7:33 PM 68.0 °F 64.9 °F 90% 29.60 in 1.8 mi NNW 15.0 mph - 0.25 in Rain , Thunderstorm Heavy Thunderstorms and Rain
7:43 PM 69.1 °F 66.0 °F 90% 29.61 in 1.8 mi North 15.0 mph - 0.35 in Rain , Thunderstorm Thunderstorms and Rain
7:46 PM 69.1 °F 66.0 °F 90% 29.62 in 3.0 mi North 11.5 mph - 0.35 in Rain , Thunderstorm Thunderstorms and Rain